This is the latest recevied weather packets stored in our database for station/object KP4CRN. If no packets are shown the sender has not sent any weather packets the latest 10 day(s).
| Time | Temp. | Humidity | Pressure | Rain* | Wind** | Luminosity | Snow |
|---|---|---|---|---|---|---|---|
| 1778101224 | 31.67° C | 65% | 1015.5 hPa | 0 mm | - | 205 W/m² | - |
| 1778100921 | 31.67° C | 66% | 1015.4 hPa | 0 mm | - | 217 W/m² | - |
| 1778100616 | 32.78° C | 64% | 1015.3 hPa | 0 mm | - | 232 W/m² | - |
| 1778100314 | 32.22° C | 65% | 1015.5 hPa | 0 mm | - | 248 W/m² | - |
| 1778100011 | 32.22° C | 66% | 1015.5 hPa | 0 mm | - | 263 W/m² | - |
| 1778099709 | 32.22° C | 65% | 1015.4 hPa | 0 mm | - | 278 W/m² | - |
| 1778099405 | 32.22° C | 66% | 1015.5 hPa | 0 mm | - | 298 W/m² | - |
| 1778099102 | 32.22° C | 65% | 1015.4 hPa | 0 mm | - | 313 W/m² | - |
| 1778098798 | 32.22° C | 65% | 1015.4 hPa | 0 mm | - | 330 W/m² | - |
| 1778098496 | 32.78° C | 63% | 1015.5 hPa | 0 mm | - | 351 W/m² | - |
| 1778098187 | 32.78° C | 63% | 1015.4 hPa | 0 mm | - | 367 W/m² | - |
| 1778097883 | 32.78° C | 62% | 1015.4 hPa | 0 mm | - | 384 W/m² | - |
| 1778097580 | 32.78° C | 61% | 1015.5 hPa | 0 mm | - | 401 W/m² | - |
| 1778097277 | 32.78° C | 63% | 1015.4 hPa | 0 mm | - | 424 W/m² | - |
| 1778096973 | 32.78° C | 62% | 1015.4 hPa | 0 mm | - | 443 W/m² | - |
| 1778096671 | 32.22° C | 63% | 1015.5 hPa | 0 mm | - | 460 W/m² | - |
| 1778096367 | 32.78° C | 63% | 1015.6 hPa | 0 mm | - | 476 W/m² | - |
| 1778096065 | 32.22° C | 65% | 1015.4 hPa | 0 mm | - | 492 W/m² | - |
| 1778095761 | 32.22° C | 66% | 1015.6 hPa | 0 mm | - | 508 W/m² | - |
| 1778095458 | 32.78° C | 64% | 1015.6 hPa | 0 mm | - | 524 W/m² | - |
| 1778095155 | 32.78° C | 63% | 1015.7 hPa | 0 mm | - | 541 W/m² | - |
| 1778094851 | 33.33° C | 61% | 1015.5 hPa | 0 mm | - | 556 W/m² | - |
| 1778094549 | 33.33° C | 60% | 1015.8 hPa | 0 mm | - | 572 W/m² | - |
| 1778094245 | 33.33° C | 60% | 1015.9 hPa | 0 mm | - | 586 W/m² | - |
| 1778093942 | 32.78° C | 60% | 1015.8 hPa | 0 mm | - | 601 W/m² | - |
* Rain latest hour (hover to see other rain measurements)
** Current wind speed in m/s (hover to see current wind gust speed)